Tracking 19637 objects as of 18-Apr-2019
HD Live streaming from Space Station
objects crossing your sky now

THORAD DELTA 1 DEB

Track THORAD DELTA 1 DEB now!
10-day predictions


NORAD ID: 8142
Int'l Code: 1974-089L
Perigee: 1,254.4 km
Apogee: 1,815.9 km
Inclination: 101.1 °
Period: 116.6 minutes
Semi major axis: 7906 km
RCS: 0.4296 m2 (medium)
Launch date: November 15, 1974
Source: United States (US)
Launch site: AIR FORCE WESTERN TEST RANGE (AFWTR)

Note: This is SATELLITE DEBRIS
aabbcc
Your satellite tracking list
Your tracking list is empty




NASA's NSSDC Master Catalog

Two Line Element Set (TLE):
1  8142U 74089L   19107.86688233 -.00005738 +00000-0 -36771-1 0  9995
2  8142 101.1192 179.4102 0355092 348.1555 070.6424 12.34974328957963
Source of the keplerian elements: AFSPC